,,,PA_Meas_PMT16A,,PR_Meas_QMR101_102,,RH_Meas_QMH101,,SR_Meas_QMS101,,TA_Meas_QMH101,,GenWind,,GenWind,
date,time,status,PA,status,PR,status,RH,status,SR,status,TA,status,DirAvg,status,SpdAvg,
2008-08-28, 08:08:04,INVALID - VALUE NOT AVAILABLE,0,VALID,0,VALID,95.7196,VALID,147.526,VALID,24.3636,INVALID,360,INVALID,0,
2008-08-28, 08:09:04,VALID,1005.89,VALID,0,VALID,95.7272,VALID,152.252,VALID,24.3849,VALID,351,VALID,0.864062,
2008-08-28, 08:10:04,VALID,1005.94,VALID,0,VALID,95.628,VALID,157.582,VALID,24.3849,VALID,338,VALID,0.827344,
2008-08-28, 08:11:04,VALID,1005.92,VALID,0,VALID,95.5746,VALID,163.716,VALID,24.3849,VALID,358,VALID,0.633203,
2008-08-28, 08:12:04,VALID,1005.96,VALID,0,VALID,95.5746,VALID,170.555,VALID,24.4025,VALID,349,VALID,0.616797,
2008-08-28, 08:13:04,VALID,1005.97,VALID,0,VALID,95.5594,VALID,178.499,VALID,24.4433,VALID,350,VALID,0.310937,
2008-08-28, 08:14:04,VALID,1005.97,VALID,0,VALID,95.5212,VALID,186.947,VALID,24.4822,VALID,352,VALID,0.902734,
2008-08-28, 08:15:04,VALID,1005.91,VALID,0,VALID,95.5136,VALID,195.293,VALID,24.5212,VALID,3,VALID,0.271094,
2008-08-28, 08:16:04,VALID,1005.9,VALID,0,VALID,95.6128,VALID,203.037,VALID,24.638,VALID,3,VALID,0.155859,
2008-08-28, 08:17:04,VALID,1005.88,VALID,0,VALID,95.6051,VALID,209.975,VALID,24.6964,VALID,293,VALID,0.859375,
2008-08-28, 08:18:04,VALID,1005.87,VALID,0,VALID,95.3534,VALID,215.406,VALID,24.6964,VALID,290,VALID,0.998828,
2008-08-28, 08:19:04,VALID,1005.88,VALID,0,VALID,95.1855,VALID,217.618,VALID,24.7159,VALID,259,VALID,0.539453,
2008-08-28, 08:20:04,VALID,1005.86,VALID,0,VALID,95.1093,VALID,216.914,VALID,24.7372,VALID,4,VALID,0.298828,
2008-08-28, 08:21:04,VALID,1005.86,VALID,0,VALID,95.1321,VALID,214.3,VALID,24.8132,VALID,301,VALID,0.375,
2008-08-28, 08:22:04,VALID,1005.83,VALID,0,VALID,95.0787,VALID,209.674,VALID,24.8522,VALID,286,VALID,0.311328,
2008-08-28, 08:23:04,VALID,1005.84,VALID,0,VALID,95.0482,VALID,204.143,VALID,24.9106,VALID,349,VALID,0.651172,
2008-08-28, 08:24:04,VALID,1005.8,VALID,0,VALID,95.0101,VALID,198.913,VALID,24.93,VALID,345,VALID,0.198437,
2008-08-28, 08:25:04,VALID,1005.79,VALID,0,VALID,95.0406,VALID,193.684,VALID,25.0079,VALID,356,VALID,0.255859,
2008-08-28, 08:26:04,VALID,1005.78,VALID,0,VALID,94.8575,VALID,188.153,VALID,25.0079,VALID,358,VALID,0.376563,
2008-08-28, 08:27:04,VALID,1005.75,VALID,0,VALID,94.8728,VALID,183.829,VALID,25.0663,VALID,1,VALID,0.327734,
2008-08-28, 08:28:04,VALID,1005.74,VALID,0,VALID,94.8194,VALID,180.209,VALID,25.1267,VALID,1,VALID,0.183984,
2008-08-28, 08:29:04,VALID,1005.7,VALID,0,VALID,94.6515,VALID,176.991,VALID,25.1248,VALID,323,VALID,0.854688,
2008-08-28, 08:30:04,VALID,1005.66,VALID,0,VALID,93.8429,VALID,173.672,VALID,24.9885,VALID,291,VALID,0.803906,
2008-08-28, 08:31:04,VALID,1005.64,VALID,0,VALID,93.8047,VALID,170.052,VALID,24.9495,VALID,282,VALID,1.38594,
2008-08-28, 08:32:04,VALID,1005.61,VALID,0,VALID,93.7055,VALID,165.728,VALID,24.9106,VALID,287,VALID,1.13516,
2008-08-28, 08:33:04,VALID,1005.6,VALID,0,VALID,93.7742,VALID,162.208,VALID,24.8911,VALID,288,VALID,1.1293,
2008-08-28, 08:34:04,VALID,1005.56,VALID,0,VALID,93.6445,VALID,162.107,VALID,24.854,VALID,284,VALID,1.29844,
2008-08-28, 08:35:04,VALID,1005.55,VALID,0,VALID,93.6292,VALID,159.493,VALID,24.8132,VALID,296,VALID,0.927344,
2008-08-28, 08:36:04,VALID,1005.53,VALID,0,VALID,93.8886,VALID,152.152,VALID,24.8132,VALID,285,VALID,0.217187,
2008-08-28, 08:37:04,VALID,1005.56,VALID,0,VALID,94.1862,VALID,145.112,VALID,24.893,VALID,285,VALID,0.255469,
2008-08-28, 08:38:04,VALID,1005.55,VALID,0,VALID,94.354,VALID,145.917,VALID,24.9709,VALID,285,VALID,0.0015625,
2008-08-28, 08:39:04,VALID,1005.57,VALID,0,VALID,94.2853,VALID,158.186,VALID,24.9495,VALID,287,VALID,0.246484,
2008-08-28, 08:40:04,VALID,1005.55,VALID,0,VALID,94.3464,VALID,177.292,VALID,25.0293,VALID,287,VALID,0.00664063,
2008-08-28, 08:41:04,VALID,1005.52,VALID,0,VALID,94.1328,VALID,189.963,VALID,25.0682,VALID,352,VALID,0.473828,
2008-08-28, 08:42:04,VALID,1005.51,VALID,0,VALID,94.3464,VALID,186.846,VALID,25.1656,VALID,351,VALID,0.2375,
2008-08-28, 08:43:04,VALID,1005.48,VALID,0,VALID,93.8734,VALID,174.577,VALID,25.1656,VALID,296,VALID,0.562109,
2008-08-28, 08:44:04,VALID,1005.51,VALID,0,VALID,93.5911,VALID,163.415,VALID,25.1461,VALID,297,VALID,0.142969,
2008-08-28, 08:45:04,VALID,1005.5,VALID,0,VALID,93.9268,VALID,160.297,VALID,25.2046,VALID,297,VALID,0.0078125,
2008-08-28, 08:46:04,VALID,1005.5,VALID,0,VALID,93.08,VALID,162.51,VALID,25.1656,VALID,297,VALID,0.371094,
2008-08-28, 08:47:04,VALID,1005.49,VALID,0,VALID,93.4614,VALID,161.102,VALID,25.1656,VALID,297,VALID,0.0253906,
2008-08-28, 08:48:04,VALID,1005.47,VALID,0,VALID,93.2249,VALID,153.56,VALID,25.2046,VALID,302,VALID,0.616016,
2008-08-28, 08:49:04,VALID,1005.47,VALID,0,VALID,92.9121,VALID,142.297,VALID,25.1442,VALID,304,VALID,0.387109,
2008-08-28, 08:50:04,VALID,1005.47,VALID,0,VALID,93.0266,VALID,131.536,VALID,25.1637,VALID,329,VALID,0.415625,
2008-08-28, 08:51:04,VALID,1005.46,VALID,0,VALID,93.141,VALID,128.419,VALID,25.1637,VALID,346,VALID,0.546875,
2008-08-28, 08:52:04,VALID,1005.44,VALID,0,VALID,93.2325,VALID,135.458,VALID,25.1637,VALID,358,VALID,1.04922,
2008-08-28, 08:53:04,VALID,1005.44,VALID,0,VALID,93.0037,VALID,148.33,VALID,25.187,VALID,360,VALID,0.752344,
2008-08-28, 08:54:04,VALID,1005.44,VALID,0,VALID,93.2173,VALID,163.214,VALID,25.2046,VALID,342,VALID,0.305469,
2008-08-28, 08:55:04,VALID,1005.43,VALID,0,VALID,93.0342,VALID,182.924,VALID,25.224,VALID,346,VALID,0.748438,
2008-08-28, 08:56:04,VALID,1005.41,VALID,0,VALID,93.1181,VALID,206.053,VALID,25.2435,VALID,356,VALID,0.930469,
2008-08-28, 08:57:04,VALID,1005.35,VALID,0,VALID,93.0342,VALID,237.731,VALID,25.2825,VALID,7,VALID,0.503906,
2008-08-28, 08:58:04,VALID,1005.31,VALID,0,VALID,93.0037,VALID,267.196,VALID,25.3019,VALID,297,VALID,0.809766,
2008-08-28, 08:59:04,VALID,1005.31,VALID,0,VALID,92.8053,VALID,292.236,VALID,25.3798,VALID,283,VALID,0.776563,
2008-08-28, 09:00:04,VALID,1005.3,VALID,0,VALID,93.141,VALID,310.337,VALID,25.4577,VALID,285,VALID,0.248828,
2008-08-28, 09:01:04,VALID,1005.28,VALID,0,VALID,93.1715,VALID,324.517,VALID,25.5551,VALID,286,VALID,0.0210938,
2008-08-28, 09:02:04,VALID,1005.27,VALID,0,VALID,93.0342,VALID,335.579,VALID,25.6136,VALID,273,VALID,0.283203,
2008-08-28, 09:03:04,VALID,1005.24,VALID,0,VALID,93.2859,VALID,343.523,VALID,25.7129,VALID,272,VALID,0.0761719,
2008-08-28, 09:04:04,VALID,1005.24,VALID,0,VALID,93.4767,VALID,350.965,VALID,25.8298,VALID,274,VALID,0.101563,
2008-08-28, 09:05:04,VALID,1005.24,VALID,0,VALID,91.9662,VALID,356.797,VALID,25.9272,VALID,290,VALID,0.940234,
2008-08-28, 09:06:04,VALID,1005.24,VALID,0,VALID,90.5472,VALID,361.825,VALID,25.8083,VALID,286,VALID,0.578516,
2008-08-28, 09:07:04,VALID,1005.23,VALID,0,VALID,90.5319,VALID,366.049,VALID,25.7674,VALID,287,VALID,0.587891,
2008-08-28, 09:08:04,VALID,1005.26,VALID,0,VALID,91.9204,VALID,370.273,VALID,25.8083,VALID,317,VALID,0.197266,
2008-08-28, 09:09:04,VALID,1005.27,VALID,0,VALID,91.8746,VALID,372.183,VALID,25.9057,VALID,345,VALID,0.226953,
2008-08-28, 09:10:04,VALID,1005.27,VALID,0,VALID,91.661,VALID,371.681,VALID,25.9252,VALID,345,VALID,0.0128906,
2008-08-28, 09:11:04,VALID,1005.29,VALID,0,VALID,91.9814,VALID,360.418,VALID,25.9447,VALID,345,VALID,0.309766,
2008-08-28, 09:12:04,VALID,1005.27,VALID,0,VALID,91.6076,VALID,349.054,VALID,25.9232,VALID,345,VALID,0.109375,
2008-08-28, 09:13:04,VALID,1005.26,VALID,0,VALID,90.4862,VALID,368.463,VALID,25.9252,VALID,191,VALID,0.658984,
2008-08-28, 09:14:04,VALID,1005.28,VALID,0,VALID,89.4028,VALID,370.072,VALID,25.8083,VALID,191,VALID,0.704297,
2008-08-28, 09:15:04,VALID,1005.28,VALID,0,VALID,88.9756,VALID,366.049,VALID,25.7285,VALID,197,VALID,0.735156,
2008-08-28, 09:16:04,VALID,1005.28,VALID,0,VALID,90.1352,VALID,371.178,VALID,25.7304,VALID,197,VALID,0.29375,
2008-08-28, 09:17:04,VALID,1005.28,VALID,0,VALID,91.5389,VALID,372.586,VALID,25.8473,VALID,197,VALID,0.198828,
2008-08-28, 09:18:04,VALID,1005.31,VALID,0,VALID,91.0278,VALID,376.407,VALID,25.9272,VALID,197,VALID,0.386328,
2008-08-28, 09:19:04,VALID,1005.29,VALID,0,VALID,90.4099,VALID,382.642,VALID,25.9642,VALID,306,VALID,0.357422,
2008-08-28, 09:20:04,VALID,1005.3,VALID,0,VALID,89.8224,VALID,384.653,VALID,26.0635,VALID,284,VALID,0.49375,
2008-08-28, 09:21:04,VALID,1005.3,VALID,0,VALID,88.8993,VALID,380.932,VALID,26.1395,VALID,273,VALID,0.25625,
2008-08-28, 09:22:04,VALID,1005.31,VALID,0,VALID,86.9769,VALID,362.228,VALID,26.118,VALID,273,VALID,0.096875,
2008-08-28, 09:23:04,VALID,1005.31,VALID,0,VALID,86.7556,VALID,362.127,VALID,26.1784,VALID,273,VALID,0.256641,
2008-08-28, 09:24:04,VALID,1005.33,VALID,0,VALID,85.4435,VALID,376.608,VALID,26.12,VALID,117,VALID,0.609766,
2008-08-28, 09:25:04,VALID,1005.31,VALID,0,VALID,86.2826,VALID,377.01,VALID,26.1025,VALID,134,VALID,0.324609,
2008-08-28, 09:26:04,VALID,1005.32,VALID,0,VALID,88.7162,VALID,355.289,VALID,26.12,VALID,208,VALID,0.523828,
2008-08-28, 09:27:04,VALID,1005.34,VALID,0,VALID,85.9088,VALID,348.752,VALID,26.2564,VALID,295,VALID,0.481641,
2008-08-28, 09:28:04,VALID,1005.35,VALID,0,VALID,86.9464,VALID,347.043,VALID,26.3558,VALID,255,VALID,0.392969,
2008-08-28, 09:29:04,VALID,1005.35,VALID,0,VALID,87.2591,VALID,367.759,VALID,26.4317,VALID,244,VALID,0.376953,
2008-08-28, 09:30:04,VALID,1005.32,VALID,0,VALID,87.9534,VALID,348.853,VALID,26.4532,VALID,259,VALID,0.263281,
2008-08-28, 09:31:04,VALID,1005.32,VALID,0,VALID,86.5496,VALID,356.898,VALID,26.4122,VALID,214,VALID,0.808594,
2008-08-28, 09:32:04,VALID,1005.31,VALID,0,VALID,84.4975,VALID,368.865,VALID,26.3558,VALID,198,VALID,1.05273,
2008-08-28, 09:33:04,VALID,1005.3,VALID,0,VALID,84.9628,VALID,407.682,VALID,26.2759,VALID,215,VALID,1.03633,
2008-08-28, 09:34:04,VALID,1005.3,VALID,0,VALID,86.0004,VALID,459.975,VALID,26.2759,VALID,216,VALID,0.294531,
2008-08-28, 09:35:04,VALID,1005.3,VALID,0,VALID,86.4734,VALID,470.433,VALID,26.3168,VALID,203,VALID,0.695703,
2008-08-28, 09:36:04,VALID,1005.28,VALID,0,VALID,85.2375,VALID,479.585,VALID,26.2953,VALID,218,VALID,0.743359,
2008-08-28, 09:37:04,VALID,1005.31,VALID,0,VALID,85.3138,VALID,485.015,VALID,26.3148,VALID,216,VALID,0.113281,
2008-08-28, 09:38:04,VALID,1005.31,VALID,0,VALID,84.0245,VALID,486.222,VALID,26.4102,VALID,270,VALID,0.276172,
2008-08-28, 09:39:04,VALID,1005.29,VALID,0,VALID,84.055,VALID,484.311,VALID,26.4901,VALID,324,VALID,0.653906,
2008-08-28, 09:40:04,VALID,1005.29,VALID,0,VALID,84.6501,VALID,485.618,VALID,26.605,VALID,292,VALID,1.025,
2008-08-28, 09:41:04,VALID,1005.32,VALID,0,VALID,84.856,VALID,487.127,VALID,26.7804,VALID,231,VALID,0.371094,
2008-08-28, 09:42:04,VALID,1005.29,VALID,0,VALID,85.8707,VALID,485.518,VALID,26.8993,VALID,245,VALID,0.444531,
2008-08-28, 09:43:04,VALID,1005.34,VALID,0,VALID,85.7486,VALID,481.294,VALID,27.0747,VALID,256,VALID,0.451172,
2008-08-28, 09:44:04,VALID,1005.32,VALID,0,VALID,82.636,VALID,476.166,VALID,27.0357,VALID,216,VALID,0.676562,
2008-08-28, 09:45:04,VALID,1005.33,VALID,0,VALID,83.7117,VALID,472.344,VALID,27.0357,VALID,203,VALID,0.582422,
2008-08-28, 09:46:04,VALID,1005.37,VALID,0,VALID,85.4206,VALID,470.735,VALID,27.0357,VALID,231,VALID,0.380469,
2008-08-28, 09:47:04,VALID,1005.37,VALID,0,VALID,84.2305,VALID,464.098,VALID,27.0962,VALID,258,VALID,0.336719,
2008-08-28, 09:48:04,VALID,1005.39,VALID,0,VALID,82.8649,VALID,460.88,VALID,27.1721,VALID,238,VALID,0.707812,
2008-08-28, 09:49:04,VALID,1005.37,VALID,0,VALID,82.9488,VALID,465.204,VALID,27.1721,VALID,203,VALID,0.439063,
2008-08-28, 09:50:04,VALID,1005.36,VALID,0,VALID,81.9342,VALID,462.187,VALID,27.1916,VALID,199,VALID,0.0785156,
2008-08-28, 09:51:04,VALID,1005.32,VALID,0,VALID,82.9793,VALID,433.728,VALID,27.25,VALID,198,VALID,0.177734,
2008-08-28, 09:52:04,VALID,1005.32,VALID,0,VALID,83.2463,VALID,426.689,VALID,27.3085,VALID,182,VALID,0.139453,
2008-08-28, 09:53:04,VALID,1005.3,VALID,0,VALID,84.589,VALID,433.527,VALID,27.4449,VALID,265,VALID,0.789844,
2008-08-28, 09:54:04,VALID,1005.28,VALID,0,VALID,81.568,VALID,519.307,VALID,27.5618,VALID,276,VALID,0.34375,
2008-08-28, 09:55:04,VALID,1005.24,VALID,0,VALID,80.767,VALID,515.486,VALID,27.6398,VALID,298,VALID,0.701953,
2008-08-28, 09:56:04,VALID,1005.21,VALID,0,VALID,81.2018,VALID,526.145,VALID,27.7178,VALID,275,VALID,0.631641,
2008-08-28, 09:57:04,VALID,1005.18,VALID,0,VALID,80.2329,VALID,591.21,VALID,27.8152,VALID,292,VALID,1.19844,
2008-08-28, 09:58:04,VALID,1005.12,VALID,0,VALID,82.4224,VALID,596.741,VALID,27.9538,VALID,270,VALID,0.554297,
2008-08-28, 09:59:04,VALID,1005.11,VALID,0,VALID,81.9113,VALID,544.951,VALID,28.0686,VALID,284,VALID,0.878125,
2008-08-28, 10:00:04,VALID,1005.11,VALID,0,VALID,79.6531,VALID,612.026,VALID,28.2656,VALID,296,VALID,0.386719,
2008-08-28, 10:01:04,VALID,1005.08,VALID,0,VALID,81.0721,VALID,613.434,VALID,28.3805,VALID,263,VALID,0.441406,
2008-08-28, 10:02:04,VALID,1005.05,VALID,0,VALID,77.3187,VALID,640.787,VALID,28.4216,VALID,232,VALID,0.928516,
2008-08-28, 10:03:04,VALID,1005.04,VALID,0,VALID,79.9812,VALID,636.966,VALID,28.4216,VALID,153,VALID,0.473828,
2008-08-28, 10:04:04,VALID,1005.04,VALID,0,VALID,77.9672,VALID,652.05,VALID,28.4021,VALID,289,VALID,1.28477,
2008-08-28, 10:05:04,VALID,1005.05,VALID,0,VALID,78.9742,VALID,547.465,VALID,28.3826,VALID,282,VALID,0.621484,
2008-08-28, 10:06:04,VALID,1005.02,VALID,0,VALID,79.7905,VALID,498.692,VALID,28.3653,VALID,250,VALID,0.770312,
2008-08-28, 10:07:04,VALID,1005.01,VALID,0,VALID,77.601,VALID,511.865,VALID,28.2851,VALID,304,VALID,0.8875,
2008-08-28, 10:08:04,VALID,1005.02,VALID,0,VALID,79.6379,VALID,519.81,VALID,28.2245,VALID,295,VALID,0.805859,
2008-08-28, 10:09:04,VALID,1005,VALID,0,VALID,80.3779,VALID,663.514,VALID,28.244,VALID,266,VALID,0.963281,
2008-08-28, 10:10:04,VALID,1005.01,VALID,0,VALID,78.9513,VALID,654.464,VALID,28.322,VALID,270,VALID,1.14609,
2008-08-28, 10:11:04,VALID,1005,VALID,0,VALID,78.1426,VALID,666.531,VALID,28.322,VALID,290,VALID,1.59805,
2008-08-28, 10:12:04,VALID,1004.94,VALID,0,VALID,76.8152,VALID,638.876,VALID,28.2635,VALID,283,VALID,2.11484,
2008-08-28, 10:13:04,VALID,1004.94,VALID,0,VALID,76.8762,VALID,611.624,VALID,28.244,VALID,287,VALID,2.55664,
2008-08-28, 10:14:04,VALID,1004.95,VALID,0,VALID,78.7377,VALID,608.305,VALID,28.1855,VALID,290,VALID,0.694922,
2008-08-28, 10:15:04,VALID,1004.93,VALID,0,VALID,79.9659,VALID,604.987,VALID,28.283,VALID,250,VALID,0.515234,
2008-08-28, 10:16:04,VALID,1004.93,VALID,0,VALID,78.3028,VALID,613.736,VALID,28.3805,VALID,298,VALID,0.948438,
2008-08-28, 10:17:04,VALID,1004.92,VALID,0,VALID,78.1197,VALID,609.411,VALID,28.4389,VALID,261,VALID,1.3375,
2008-08-28, 10:18:04,VALID,1004.92,VALID,0,VALID,76.594,VALID,609.613,VALID,28.4021,VALID,286,VALID,1.3957,
2008-08-28, 10:19:04,VALID,1004.9,VALID,0,VALID,79.2336,VALID,676.889,VALID,28.4389,VALID,278,VALID,0.690234,
2008-08-28, 10:20:04,VALID,1004.93,VALID,0,VALID,78.4554,VALID,703.74,VALID,28.6534,VALID,279,VALID,0.682422,
2008-08-28, 10:21:04,VALID,1004.89,VALID,0,VALID,76.655,VALID,707.36,VALID,28.6144,VALID,313,VALID,1.41719,
2008-08-28, 10:22:04,VALID,1004.88,VALID,0,VALID,77.7154,VALID,720.232,VALID,28.6144,VALID,210,VALID,0.735547,
2008-08-28, 10:23:04,VALID,1004.9,VALID,0,VALID,78.9742,VALID,717.617,VALID,28.6729,VALID,244,VALID,0.410547,
2008-08-28, 10:24:04,VALID,1004.83,VALID,0,VALID,76.5482,VALID,720.835,VALID,28.7509,VALID,267,VALID,0.304688,
2008-08-28, 10:25:04,VALID,1004.83,VALID,0,VALID,76.6245,VALID,688.856,VALID,28.8678,VALID,41,VALID,0.694922,
2008-08-28, 10:26:04,VALID,1004.86,VALID,0,VALID,75.1979,VALID,700.521,VALID,28.9848,VALID,297,VALID,1.84102,
2008-08-28, 10:27:04,VALID,1004.83,VALID,0,VALID,73.8857,VALID,664.721,VALID,29.0238,VALID,257,VALID,0.296875,
2008-08-28, 10:28:04,VALID,1004.82,VALID,0,VALID,73.2601,VALID,625.2,VALID,29.0238,VALID,297,VALID,1.4918,
2008-08-28, 10:29:04,VALID,1004.84,VALID,0,VALID,75.8387,VALID,536.503,VALID,29.0238,VALID,204,VALID,0.674219,
2008-08-28, 10:30:04,VALID,1004.8,VALID,0,VALID,75.6861,VALID,605.992,VALID,28.909,VALID,200,VALID,1.05703,
2008-08-28, 10:31:04,VALID,1004.8,VALID,0,VALID,76.7847,VALID,578.84,VALID,28.8505,VALID,253,VALID,1.24336,
2008-08-28, 10:32:04,VALID,1004.79,VALID,0,VALID,74.5799,VALID,548.772,VALID,28.8505,VALID,274,VALID,1.26094,
2008-08-28, 10:33:04,VALID,1004.74,VALID,0,VALID,76.4795,VALID,514.782,VALID,28.87,VALID,265,VALID,0.583984,
2008-08-28, 10:34:04,VALID,1004.75,VALID,0,VALID,74.8546,VALID,501.809,VALID,28.948,VALID,222,VALID,0.425781,
2008-08-28, 10:35:04,VALID,1004.75,VALID,0,VALID,77.0288,VALID,506.636,VALID,29.0043,VALID,196,VALID,0.238672,
2008-08-28, 10:36:04,VALID,1004.75,VALID,0,VALID,75.1292,VALID,492.96,VALID,29.0845,VALID,172,VALID,0.479297,
2008-08-28, 10:37:04,VALID,1004.76,VALID,0,VALID,77.2043,VALID,494.971,VALID,29.182,VALID,231,VALID,0.378906,
2008-08-28, 10:38:04,VALID,1004.74,VALID,0,VALID,76.7542,VALID,545.252,VALID,29.2795,VALID,182,VALID,0.298438,
2008-08-28, 10:39:04,VALID,1004.74,VALID,0,VALID,76.3498,VALID,471.037,VALID,29.4355,VALID,189,VALID,0.442578,
2008-08-28, 10:40:04,VALID,1004.75,VALID,0,VALID,73.5882,VALID,470.635,VALID,29.533,VALID,281,VALID,1.38047,
2008-08-28, 10:41:04,VALID,1004.73,VALID,0,VALID,73.3822,VALID,522.525,VALID,29.494,VALID,276,VALID,0.898828,
2008-08-28, 10:42:04,VALID,1004.73,VALID,0,VALID,74.908,VALID,620.373,VALID,29.533,VALID,229,VALID,0.357812,
2008-08-28, 10:43:04,VALID,1004.75,VALID,0,VALID,73.0313,VALID,513.776,VALID,29.3965,VALID,192,VALID,1.64102,
2008-08-28, 10:44:04,VALID,1004.72,VALID,0,VALID,74.4121,VALID,540.626,VALID,29.1408,VALID,298,VALID,1.11563,
2008-08-28, 10:45:04,VALID,1004.7,VALID,0,VALID,75.2971,VALID,578.84,VALID,29.182,VALID,333,VALID,0.244531,
2008-08-28, 10:46:04,VALID,1004.67,VALID,0,VALID,75.8387,VALID,555.811,VALID,29.26,VALID,187,VALID,0.754297,
2008-08-28, 10:47:04,VALID,1004.65,VALID,0,VALID,74.6181,VALID,544.448,VALID,29.2773,VALID,214,VALID,0.427344,
2008-08-28, 10:48:04,VALID,1004.62,VALID,0,VALID,74.8164,VALID,483.205,VALID,29.2795,VALID,209,VALID,1.23633,
2008-08-28, 10:49:04,VALID,1004.6,VALID,0,VALID,74.6028,VALID,497.787,VALID,28.987,VALID,203,VALID,1.57266,
2008-08-28, 10:50:04,VALID,1004.59,VALID,0,VALID,75.1979,VALID,506.133,VALID,28.87,VALID,268,VALID,1.08008,
2008-08-28, 10:51:04,VALID,1004.57,VALID,0,VALID,74.969,VALID,516.19,VALID,28.8505,VALID,276,VALID,1.41523,
2008-08-28, 10:52:04,VALID,1004.55,VALID,0,VALID,74.1603,VALID,587.086,VALID,28.7314,VALID,287,VALID,1.61016,
2008-08-28, 10:53:04,VALID,1004.54,VALID,0,VALID,74.8088,VALID,652.955,VALID,28.7314,VALID,301,VALID,1.95703,
2008-08-28, 10:54:04,VALID,1004.54,VALID,0,VALID,74.6181,VALID,504.725,VALID,28.6534,VALID,270,VALID,1.56367,
2008-08-28, 10:55:04,VALID,1004.47,VALID,0,VALID,77.3874,VALID,541.733,VALID,28.6512,VALID,322,VALID,1.60508,
2008-08-28, 10:56:04,VALID,1004.47,VALID,0,VALID,75.7853,VALID,522.626,VALID,28.6534,VALID,275,VALID,1.77734,
2008-08-28, 10:57:04,VALID,1004.43,VALID,0,VALID,77.1738,VALID,512.469,VALID,28.6339,VALID,273,VALID,1.17969,
2008-08-28, 10:58:04,VALID,1004.44,VALID,0,VALID,75.0377,VALID,525.441,VALID,28.6534,VALID,286,VALID,1.94844,
2008-08-28, 10:59:04,VALID,1004.42,VALID,0,VALID,77.0746,VALID,446.097,VALID,28.6144,VALID,271,VALID,0.909375,
2008-08-28, 11:00:04,VALID,1004.41,VALID,0,VALID,74.9232,VALID,423.772,VALID,28.6534,VALID,240,VALID,1.3668,
2008-08-28, 11:01:04,VALID,1004.38,VALID,0,VALID,75.7014,VALID,411.001,VALID,28.5927,VALID,271,VALID,0.704687,
2008-08-28, 11:02:04,VALID,1004.38,VALID,0,VALID,77.128,VALID,457.26,VALID,28.6707,VALID,258,VALID,0.48125,
2008-08-28, 11:03:04,VALID,1004.37,VALID,0,VALID,75.976,VALID,479.585,VALID,28.7704,VALID,343,VALID,0.842578,
2008-08-28, 11:04:04,VALID,1004.3,VALID,0,VALID,76.6779,VALID,477.775,VALID,28.7898,VALID,262,VALID,0.571094,
2008-08-28, 11:05:04,VALID,1004.3,VALID,0,VALID,74.2748,VALID,478.277,VALID,28.8483,VALID,282,VALID,1.38867,
2008-08-28, 11:06:04,VALID,1004.28,VALID,0,VALID,74.6791,VALID,522.726,VALID,28.8288,VALID,200,VALID,0.5375,
2008-08-28, 11:07:04,VALID,1004.26,VALID,0,VALID,76.7236,VALID,585.075,VALID,28.8873,VALID,190,VALID,0.406641,
2008-08-28, 11:08:04,VALID,1004.25,VALID,0,VALID,74.9919,VALID,702.734,VALID,29.0043,VALID,277,VALID,1.36797,
2008-08-28, 11:09:04,VALID,1004.27,VALID,0,VALID,74.5418,VALID,938.051,VALID,29.1408,VALID,275,VALID,0.960547,
2008-08-28, 11:10:04,VALID,1004.22,VALID,0,VALID,73.9315,VALID,625.502,VALID,29.2773,VALID,218,VALID,0.819531,
2008-08-28, 11:11:04,VALID,1004.19,VALID,0,VALID,74.9156,VALID,669.146,VALID,29.3943,VALID,237,VALID,0.589063,
2008-08-28, 11:12:04,VALID,1004.14,VALID,0,VALID,71.8488,VALID,787.81,VALID,29.4918,VALID,248,VALID,0.578516,
2008-08-28, 11:13:04,VALID,1004.13,VALID,0,VALID,73.9773,VALID,751.406,VALID,29.4895,VALID,272,VALID,1.75312,
2008-08-28, 11:14:04,VALID,1004.1,VALID,0,VALID,71.7801,VALID,592.718,VALID,29.5503,VALID,303,VALID,0.785937,
2008-08-28, 11:15:04,VALID,1004.03,VALID,0,VALID,72.2684,VALID,490.647,VALID,29.5698,VALID,216,VALID,0.915234,
2008-08-28, 11:16:04,VALID,1003.99,VALID,0,VALID,71.6504,VALID,484.713,VALID,29.5308,VALID,278,VALID,1.91992,
2008-08-28, 11:17:04,VALID,1003.98,VALID,0,VALID,73.0084,VALID,465.104,VALID,29.3965,VALID,261,VALID,1.39414,
2008-08-28, 11:18:04,VALID,1003.92,VALID,0,VALID,73.9925,VALID,480.389,VALID,29.299,VALID,266,VALID,0.767969,
2008-08-28, 11:19:04,VALID,1003.88,VALID,0,VALID,74.4121,VALID,481.194,VALID,29.2578,VALID,243,VALID,0.686719,
2008-08-28, 11:20:04,VALID,1003.93,VALID,0,VALID,70.6282,VALID,446.902,VALID,29.2405,VALID,190,VALID,1.55586,
2008-08-28, 11:21:04,VALID,1003.89,VALID,0,VALID,73.5119,VALID,467.316,VALID,29.0043,VALID,174,VALID,1.28555,
2008-08-28, 11:22:04,VALID,1003.9,VALID,0,VALID,74.4502,VALID,539.118,VALID,28.9263,VALID,172,VALID,0.745313,
2008-08-28, 11:23:04,VALID,1003.89,VALID,0,VALID,73.962,VALID,530.57,VALID,28.8873,VALID,186,VALID,1.00937,
2008-08-28, 11:24:04,VALID,1003.88,VALID,0,VALID,75.1902,VALID,508.849,VALID,28.7704,VALID,202,VALID,1.73711,
2008-08-28, 11:25:04,VALID,1003.92,VALID,0,VALID,74.9766,VALID,484.613,VALID,28.6339,VALID,192,VALID,0.528516,
2008-08-28, 11:26:04,VALID,1003.89,VALID,0,VALID,73.0313,VALID,460.277,VALID,28.714,VALID,269,VALID,0.876172,
2008-08-28, 11:27:04,VALID,1003.88,VALID,0,VALID,75.9837,VALID,507.742,VALID,28.8505,VALID,243,VALID,0.522266,
2008-08-28, 11:28:04,VALID,1003.85,VALID,0,VALID,72.9016,VALID,564.259,VALID,28.8483,VALID,194,VALID,1.11563,
2008-08-28, 11:29:04,VALID,1003.85,VALID,0,VALID,72.5735,VALID,585.88,VALID,28.7509,VALID,279,VALID,0.962109,
2008-08-28, 11:30:04,VALID,1003.84,VALID,0,VALID,74.6562,VALID,583.466,VALID,28.753,VALID,224,VALID,0.621875,
2008-08-28, 11:31:04,VALID,1003.87,VALID,0,VALID,74.7707,VALID,572.605,VALID,28.8678,VALID,263,VALID,0.955859,
2008-08-28, 11:32:04,VALID,1003.87,VALID,0,VALID,74.0154,VALID,572.304,VALID,28.9653,VALID,227,VALID,0.932031,
2008-08-28, 11:33:04,VALID,1003.91,VALID,0,VALID,74.1985,VALID,464.098,VALID,28.9826,VALID,279,VALID,0.809375,
2008-08-28, 11:34:04,VALID,1003.91,VALID,0,VALID,74.2595,VALID,401.548,VALID,29.0823,VALID,250,VALID,0.91875,
2008-08-28, 11:35:04,VALID,1003.93,VALID,0,VALID,75.0529,VALID,348.752,VALID,29.1018,VALID,261,VALID,1.2207,
2008-08-28, 11:36:04,VALID,1003.94,VALID,0,VALID,73.5043,VALID,329.545,VALID,29.0628,VALID,189,VALID,0.487109,
2008-08-28, 11:37:04,VALID,1003.91,VALID,0,VALID,73.1915,VALID,343.624,VALID,28.8678,VALID,208,VALID,1.53984,
2008-08-28, 11:38:04,VALID,1003.91,VALID,0,VALID,75.6251,VALID,362.731,VALID,28.6924,VALID,259,VALID,0.712109,
2008-08-28, 11:39:04,VALID,1003.9,VALID,0,VALID,74.2366,VALID,350.663,VALID,28.675,VALID,316,VALID,1.14063,
2008-08-28, 11:40:04,VALID,1003.89,VALID,0,VALID,74.8698,VALID,339.199,VALID,28.4389,VALID,164,VALID,1.31719,
2008-08-28, 11:41:04,VALID,1003.89,VALID,0,VALID,79.5006,VALID,352.071,VALID,28.283,VALID,216,VALID,0.940234,